TimeEDT,TemperatureF,Dew PointF,Humidity,Sea Level PressureIn,VisibilityMPH,Wind Direction,Wind SpeedMPH,Gust SpeedMPH,PrecipitationIn,Events,Conditions,WindDirDegrees,DateUTC
12:33 AM,64.4,60.8,88,29.72,10.0,WNW,12.7,-,0.00,,Scattered Clouds,300,2011-10-01 04:33:00
12:56 AM,64.0,62.1,93,29.72,10.0,NW,13.8,-,0.00,,Mostly Cloudy,320,2011-10-01 04:56:00
1:16 AM,62.6,60.8,94,29.72,10.0,NW,13.8,-,N/A,,Overcast,320,2011-10-01 05:16:00
1:47 AM,62.6,60.8,94,29.70,10.0,NW,18.4,-,N/A,,Scattered Clouds,320,2011-10-01 05:47:00
2:56 AM,62.1,60.1,93,29.69,10.0,NW,15.0,-,N/A,,Clear,320,2011-10-01 06:56:00
3:56 AM,61.0,57.9,90,29.70,10.0,NNW,15.0,-,N/A,,Clear,330,2011-10-01 07:56:00
4:56 AM,60.1,55.9,86,29.72,10.0,NW,9.2,-,N/A,,Clear,320,2011-10-01 08:56:00
5:56 AM,59.0,55.0,87,29.74,10.0,NW,10.4,-,N/A,,Clear,320,2011-10-01 09:56:00
6:56 AM,57.9,53.1,84,29.78,10.0,NW,10.4,-,N/A,,Clear,310,2011-10-01 10:56:00
7:56 AM,57.9,52.0,81,29.79,10.0,NW,16.1,-,N/A,,Clear,320,2011-10-01 11:56:00
9:56 AM,63.0,50.0,63,29.80,10.0,NNW,19.6,-,N/A,,Clear,340,2011-10-01 13:56:00
10:56 AM,64.0,51.1,63,29.81,10.0,NW,16.1,-,N/A,,Clear,310,2011-10-01 14:56:00
11:56 AM,66.0,51.1,59,29.80,10.0,WNW,8.1,-,N/A,,Clear,300,2011-10-01 15:56:00
12:56 PM,66.9,48.9,52,29.80,10.0,WNW,10.4,-,N/A,,Scattered Clouds,300,2011-10-01 16:56:00
1:56 PM,68.0,48.9,50,29.80,10.0,WNW,13.8,-,N/A,,Scattered Clouds,300,2011-10-01 17:56:00
2:56 PM,68.0,46.0,45,29.80,10.0,WNW,11.5,-,N/A,,Clear,290,2011-10-01 18:56:00
3:56 PM,66.9,44.1,44,29.81,10.0,WNW,13.8,-,N/A,,Clear,300,2011-10-01 19:56:00
5:56 PM,64.9,41.0,42,29.85,10.0,WNW,17.3,-,N/A,,Clear,300,2011-10-01 21:56:00
7:56 PM,59.0,43.0,55,29.89,10.0,WNW,9.2,-,N/A,,Clear,300,2011-10-01 23:56:00
8:56 PM,57.9,45.0,62,29.90,10.0,WNW,9.2,-,N/A,,Clear,300,2011-10-02 00:56:00
9:56 PM,57.9,44.1,60,29.92,10.0,WNW,12.7,-,N/A,,Clear,290,2011-10-02 01:56:00
10:56 PM,57.0,44.1,62,29.93,10.0,WNW,11.5,-,N/A,,Clear,290,2011-10-02 02:56:00
11:56 PM,55.9,43.0,62,29.93,10.0,WNW,16.1,-,N/A,,Clear,300,2011-10-02 03:56:00